Flag for Iran Weather past 2 weeks in Mashhad, Iran

Now
81 °F

Clear.


Feels Like: 79 °F
Forecast: 68 / 94 °F
Wind: 7 mph from Northeast

Location: Mashhad Airport

Current Time: Jul 30, 2015 at 11:29:13 PM

Latest Report: Jul 30, 2015 at 10:30 PM


Visibility: 10 mi

Pressure: 29.98 "Hg (26.81 "Hg at 981m altitude)

Humidity: 16%

Dew point: 30 °F

Location of MashhadLocation

Historic Weather in Mashhad — Graph

°F

Mashhad temperature yesterday

Maximum temperature yesterday: 97 °F (at 2:30 PM)
Minimum temperature yesterday: 70 °F (at 5:00 AM)
Average temperature yesterday: 85 °F

Past Weeks' High & Low Weather Summary

 TemperatureHumidityPressure
High102 °F (Jul 16, 12:30 PM)57% (Jul 20, 6:30 AM)30.04 "Hg (Jul 20, 6:30 AM)
Low66 °F (Jul 21, 3:30 AM)5% (Jul 29, 2:00 PM)29.77 "Hg (Jul 19, 4:30 PM)
Average83 °F23%29.91 "Hg
* Reported Jul 15 9:30 PM — Jul 30 10:00 PM, Mashhad, Weather by CustomWeather, © 2015

Note: Actual official high and low records may vary slightly from our data, if they occured in-between our weather recording intervals... More about our weather records

Advertising

Mashhad weather history for previous 24 hours

 ConditionsComfort  
Time TempWeatherWind HumidityBarometerVisibility
10:00 PM
Thu, Jul 30
82 °FClear.12 mph16%29.98 "Hg10 mi
9:30 PM82 °FClear.12 mph16%29.98 "Hg10 mi
9:00 PM82 °FSunny.14 mph16%29.95 "Hg10 mi
8:30 PM84 °FSunny.12 mph15%29.95 "Hg10 mi
8:00 PM84 °FSunny.16 mph15%29.95 "Hg10 mi
7:30 PM86 °FSunny.14 mph14%29.92 "Hg10 mi
7:00 PM88 °FPassing clouds.16 mph15%29.92 "HgN/A
6:30 PM90 °FPassing clouds.18 mph13%29.89 "HgN/A
6:00 PM91 °FPassing clouds.21 mph12%29.89 "HgN/A
5:30 PM93 °FPassing clouds.16 mph12%29.89 "HgN/A
5:00 PM93 °FPassing clouds.12 mph10%29.89 "HgN/A
4:30 PM95 °FPassing clouds.14 mph10%29.92 "HgN/A
4:00 PM95 °FPassing clouds.14 mph11%29.92 "HgN/A
3:30 PM97 °FPassing clouds.21 mph10%29.92 "HgN/A
3:00 PM95 °FPassing clouds.14 mph10%29.92 "HgN/A
2:30 PM95 °FPassing clouds.21 mph10%29.92 "HgN/A
2:00 PM95 °FPassing clouds.14 mph10%29.92 "HgN/A
1:30 PM95 °FPassing clouds.16 mph10%29.92 "HgN/A
12:50 PM95 °FPassing clouds.21 mph10%29.95 "HgN/A
12:30 PM95 °FSunny.16 mph10%29.95 "Hg10 mi
12:00 PM95 °FSunny.16 mph10%29.95 "Hg10 mi
11:30 AM91 °FSunny.9 mph10%29.95 "Hg10 mi
11:00 AM91 °FSunny.5 mph11%29.95 "Hg10 mi
10:30 AM90 °FSunny.7 mph9%29.95 "Hg10 mi
10:00 AM88 °FSunny.5 mph10%29.95 "Hg10 mi
9:30 AM86 °FSunny.5 mph12%29.95 "Hg10 mi
8:50 AM84 °FSunny.9 mph14%29.95 "Hg10 mi
8:30 AM82 °FSunny.7 mph17%29.95 "Hg10 mi
8:00 AM81 °FSunny.7 mph17%29.95 "Hg10 mi
7:30 AM81 °FSunny.5 mph18%29.95 "Hg10 mi
7:00 AM77 °FClear.No wind21%29.95 "Hg10 mi
6:30 AM72 °FClear.5 mph29%29.95 "Hg10 mi
6:00 AM70 °FClear.5 mph29%29.95 "Hg10 mi
5:30 AM72 °FClear.5 mph27%29.95 "Hg10 mi
5:00 AM72 °FClear.7 mph23%29.95 "Hg10 mi
4:20 AM70 °FClear.5 mph29%29.95 "Hg10 mi
4:00 AM70 °FClear.5 mph27%29.92 "Hg10 mi
3:30 AM72 °FClear.5 mph23%29.92 "Hg10 mi
3:00 AM72 °FClear.5 mph25%29.92 "Hg10 mi
2:30 AM72 °FClear.5 mph20%29.92 "Hg10 mi
2:00 AM73 °FClear.5 mph19%29.92 "Hg10 mi
1:30 AM73 °FClear.5 mph19%29.92 "Hg10 mi
1:00 AM75 °FClear.5 mph19%29.92 "Hg10 mi
12:30 AM75 °FClear.7 mph16%29.92 "Hg10 mi
12:00 AM75 °FClear.5 mph19%29.92 "Hg10 mi
11:30 PM
Wed, Jul 29
77 °FClear.5 mph15%29.92 "Hg10 mi
11:00 PM79 °FClear.5 mph15%29.92 "Hg10 mi
Weather by CustomWeather, © 2015

See weather overviewHow to use our weather pages